Change the Weather History Date:

Thursday, August 29, 2013

  Actual Average Record
Temperature  
Mean Temperature 73 °F 71 °F  
Max Temperature 89 °F 90 °F 107 °F (1918)
Min Temperature 56 °F 53 °F 40 °F (1921)
Degree Days  
Heating Degree Days 0 0  
Month to date heating degree days 0  
Since 1 June heating degree days 33  
Since 1 July heating degree days 1  
Cooling Degree Days 8 6  
Month to date cooling degree days 227  
Year to date cooling degree days 670  
Since 1 June cooling degree days 618  
Growing Degree Days 22 (Base 50)    
Moisture  
Dew Point 56 °F    
Average Humidity 61    
Maximum Humidity 87    
Minimum Humidity 34    
Precipitation  
Precipitation 0.00 in 0.01 in 0.14 in (1953)
Month to date precipitation T 0.08  
Year to date precipitation 5.61 23.50  
Since 1 July precipitation 0.03 0.12  
Snow  
Snow 0.00 in - - ()
Month to date snowfall 0.0  
Since 1 June snowfall 0.0  
Since 1 July snowfall 0.0  
Snow Depth -    
Sea Level Pressure  
Sea Level Pressure 30.00 in    
Wind  
Wind Speed 3 mph (NNW)    
Max Wind Speed 15 mph    
Max Gust Speed 22 mph    
Visibility 10 miles    
Events      
T = Trace of Precipitation, MM = Missing Value Source: NWS Daily Summary

Daily Weather History Graph

Daily Weather History Graph

Search for Another Location

Airport or City:

Trip Planner

Search our weather history database for the weather conditions in past years. The results will help you decide how hot, cold, wet, or windy it might be!

Date:

Astronomy

Aug. 29, 2013 Rise Set
Actual Time 6:39 AM PDT 7:47 PM PDT
Civil Twilight 6:11 AM PDT 8:14 PM PDT
Nautical Twilight 5:38 AM PDT 8:47 PM PDT
Astronomical Twilight 5:04 AM PDT 9:21 PM PDT
Moon 12:36 AM PDT (8/29) 3:19 PM PDT (8/29)
Length of Visible Light 14h 03m
Length of Day
13h 08m
Last Quarter, 37% of the Moon is Illuminated
Aug 29
Last Quarter
Sep 5
New
Sep 12
First Quarter
Sep 19
Full
Sep 26
Last Quarter

Hourly Weather History & Observations

Time (PDT) Temp. Heat Index Dew Point Humidity Pressure Visibility Wind Dir Wind Speed Gust Speed Precip Events Conditions
12:56 AM 64.0 °F - 57.0 °F 78% 29.93 in 10.0 mi Calm Calm - N/A   Clear
1:56 AM 61.0 °F - 55.9 °F 83% 29.94 in 10.0 mi Calm Calm - N/A   Clear
2:56 AM 59.0 °F - 55.0 °F 87% 29.94 in 10.0 mi East 3.5 mph - N/A   Clear
3:56 AM 59.0 °F - 55.0 °F 87% 29.95 in 10.0 mi Calm Calm - N/A   Clear
4:56 AM 59.0 °F - 55.0 °F 87% 29.96 in 10.0 mi Calm Calm - N/A   Clear
5:56 AM 57.0 °F - 54.0 °F 89% 29.97 in 10.0 mi Calm Calm - N/A   Clear
6:56 AM 57.9 °F - 54.0 °F 87% 30.00 in 10.0 mi Calm Calm - N/A   Clear
7:56 AM 60.1 °F - 55.0 °F 83% 30.02 in 10.0 mi Calm Calm - N/A   Clear
8:56 AM 64.0 °F - 57.0 °F 78% 30.03 in 10.0 mi Calm Calm - N/A   Clear
9:56 AM 69.1 °F - 57.9 °F 68% 30.04 in 10.0 mi Calm Calm - N/A   Clear
10:56 AM 75.0 °F - 59.0 °F 57% 30.03 in 10.0 mi Calm Calm - N/A   Clear
11:56 AM 81.0 °F 81.1 °F 57.9 °F 45% 30.03 in 10.0 mi Variable 3.5 mph - N/A   Clear
12:56 PM 84.0 °F 83.0 °F 55.9 °F 38% 30.01 in 10.0 mi East 4.6 mph - N/A   Clear
1:56 PM 84.9 °F 83.7 °F 55.9 °F 37% 30.00 in 10.0 mi WSW 5.8 mph - N/A   Partly Cloudy
2:56 PM 87.1 °F 85.3 °F 55.0 °F 33% 29.99 in 10.0 mi NNW 13.8 mph 18.4 mph N/A   Clear
3:56 PM 88.0 °F 86.7 °F 57.0 °F 35% 29.99 in 10.0 mi NW 12.7 mph - N/A   Clear
4:56 PM 86.0 °F 84.9 °F 57.0 °F 37% 29.99 in 10.0 mi NW 10.4 mph - N/A   Clear
5:56 PM 84.9 °F 83.9 °F 57.0 °F 38% 29.98 in 10.0 mi Variable 6.9 mph - N/A   Clear
6:56 PM - - - N/A% 30.01 in - North - - N/A   Unknown
7:56 PM - - - N/A% 30.03 in - North - - N/A   Unknown
8:56 PM - - - N/A% 30.05 in - North - - N/A   Unknown
9:56 PM - - - N/A% 30.06 in - North - - N/A   Unknown
10:56 PM - - - N/A% 30.06 in - North - - N/A   Unknown
11:56 PM - - - N/A% 30.07 in - North - - N/A   Unknown